Location: Krakow
(50.0830°N, 19.9170°E)
Time: 10:33:55
(UTC+01:00)

Transit 2A - Pass Details

Date: 13 February 2023
Orbit: 591 x 964 km, 66.7° (Epoch: 21 March)

Event Time Altitude Azimuth Distance (km) Brightness Sun altitude
Rises 23:45:44 0° 318° (NW) 3,536 9.8 -53.1°
Enters shadow 23:45:54 - 318° (NW) 3,476 9.8 -53.1°
Reaches altitude 10° 23:48:24 10° 310° (NW) 2,632 - -53.1°
Maximum altitude 23:53:55 35° 247° (WSW) 1,500 - -53.1°
Drops below altitude 10° 23:59:34 10° 185° (S) 2,694 - -53.1°
Sets 00:02:20 0° 176° (S) 3,631 - -53.1°
